Dewpoint
56 55 55 56 55 55 54 55 55 54 54 52 51 50 51 51 50 49 48 47 48 48 48 48 47 47 48 48 48 47 47 47 47 47 46 46 45 45 42 42 42 42 42 43 43 40 39 37 34 30 27 24
57 56 56 56 55 55 55 55 55 54 54 54 52 51 49 49 50 49 48 47 47 48 48 47 47 47 47 47 47 47 46 47 46 46 46 45 45 43 43 43 42 43 42 43 41 38 37 35 33 31 28 22
55 57 56 56 56 55 54 55 54 53 53 53 52 51 50 51 52 50 47 46 47 47 48 47 47 47 47 47 47 45 46 47 46 46 46 45 45 44 43 43 43 42 42 42 40 37 35 33 32 30 25 22
53 56 56 56 56 55 55 54 54 53 52 52 53 53 53 52 51 49 46 46 44 46 47 47 45 46 47 47 47 46 45 45 46 45 45 45 45 43 43 43 42 41 41 40 39 36 34 31 29 20 19 23
49 51 55 55 55 55 55 54 54 54 53 53 53 53 52 51 50 48 47 45 46 45 46 48 47 45 46 47 47 45 44 45 45 45 45 44 44 43 43 40 39 39 39 39 37 35 32 30 20 21 21 21
47 49 53 53 54 53 54 53 53 52 52 52 51 51 51 48 45 44 44 44 46 46 46 47 45 44 44 46 46 45 44 43 44 44 45 44 44 43 40 38 32 36 36 36 35 32 30 22 20 21 18 16
46 46 48 50 50 51 53 52 52 50 50 48 48 48 47 45 43 41 41 41 43 43 45 44 44 44 43 43 45 45 44 42 43 44 44 43 42 42 37 27 18 19 25 30 34 31 23 15 15 16 15 15
44 45 45 47 48 48 49 49 50 47 47 45 45 45 43 42 42 41 38 42 44 44 43 42 43 42 42 40 43 44 45 42 42 42 42 43 41 36 25 17 19 19 17 16 16 15 15 15 15 15 14 15
44 44 44 45 46 46 46 47 46 45 44 44 43 43 42 40 41 38 36 40 41 39 39 39 39 40 40 38 38 40 33 35 32 36 29 30 25 17 21 16 17 19 20 19 16 15 15 15 16 17 17 14
44 44 43 43 44 44 43 45 44 43 42 41 41 40 40 39 39 36 34 36 38 36 35 35 36 35 30 29 32 36 27 23 20 20 20 18 19 16 16 15 17 20 21 17 16 16 16 16 16 13 14 14
44 44 43 42 42 43 42 42 43 42 41 40 39 39 40 38 36 34 33 33 34 34 32 33 33 31 27 26 27 32 25 20 20 17 17 16 16 16 15 16 20 23 19 18 17 16 16 15 14 14 14 13
42 43 42 41 42 43 43 41 41 41 41 40 38 38 37 38 36 34 32 32 31 33 28 32 31 27 24 23 24 31 20 18 18 18 16 16 16 16 16 16 18 19 19 18 16 16 15 15 13 13 13 13
41 42 41 41 40 40 42 41 40 41 41 39 38 37 38 39 35 33 33 32 30 28 31 30 29 26 27 22 23 29 22 18 18 17 17 17 16 15 16 16 18 19 20 18 16 14 14 13 12 13 14 13
39 40 41 40 40 39 41 40 39 40 39 39 38 36 36 38 35 34 32 32 29 28 30 29 27 27 25 24 20 24 19 19 17 17 17 17 16 16 16 15 16 22 18 16 16 15 13 12 11 13 13 12
37 39 39 40 40 39 39 39 38 37 37 38 37 36 36 37 37 34 33 32 29 27 28 28 27 26 23 20 19 23 18 22 17 17 17 17 16 16 16 15 20 18 15 15 15 17 13 11 12 13 14 12
37 37 38 39 39 39 38 39 38 36 35 36 36 37 37 35 36 35 32 32 29 27 27 26 26 26 23 24 19 23 18 22 20 18 18 18 17 16 16 16 21 19 14 14 13 16 12 12 12 13 13 12
36 37 37 38 38 38 39 38 38 36 35 35 35 35 36 34 35 35 32 31 30 30 26 26 26 25 25 24 22 21 19 22 21 20 20 19 19 18 17 16 18 20 14 12 12 12 12 12 12 14 13 11
33 35 37 37 37 38 38 37 37 37 36 35 34 34 34 34 34 35 32 31 30 29 25 25 26 25 24 23 20 22 20 21 20 19 19 19 19 21 17 14 15 17 13 12 12 12 12 12 13 13 12 12
33 33 35 36 36 36 38 37 37 37 37 35 35 33 33 33 33 33 33 31 29 28 25 24 24 24 24 23 21 21 21 19 20 18 18 21 16 20 17 14 16 16 12 12 12 11 13 12 15 14 12 12
33 33 33 35 36 35 37 36 36 36 36 35 34 34 33 33 32 33 32 31 29 27 25 23 22 22 23 21 20 20 21 19 19 18 17 21 16 19 18 15 14 18 13 12 12 13 14 14 17 13 13 12
35 33 32 31 32 34 35 34 34 34 35 35 34 33 32 32 32 33 32 31 29 26 25 23 22 21 24 23 19 19 21 19 19 17 17 19 17 17 17 16 13 17 16 13 13 13 15 15 15 14 13 12
32 31 31 31 32 33 32 31 31 32 32 33 32 32 31 32 31 32 31 30 29 26 25 24 23 22 23 22 19 18 20 19 18 17 16 17 19 15 15 16 14 13 15 14 12 12 12 13 13 13 12 12
31 31 29 27 26 26 26 30 30 30 30 31 31 30 31 31 30 31 31 30 29 26 25 24 22 21 22 21 18 18 19 18 18 17 16 16 19 18 14 15 15 13 12 12 12 12 12 12 12 11 11 13
31 30 30 29 28 28 28 26 28 29 28 29 29 30 30 30 30 29 30 29 28 27 25 24 22 21 17 18 18 17 17 17 18 17 15 14 17 18 16 16 14 13 14 13 12 14 14 13 12 12 13 14
31 30 29 29 27 27 26 27 26 25 27 28 27 29 29 29 28 29 30 29 28 27 27 24 22 22 16 17 17 17 16 17 17 17 15 15 18 17 15 16 14 13 12 11 10 10 10 9 10 13 15 12
35 34 32 30 31 30 30 28 27 27 26 26 27 29 29 29 28 28 28 29 28 27 26 25 23 21 16 16 17 16 16 15 20 19 16 15 16 18 15 15 14 13 12 10 8 4 1 3 5 9 13 10
31 31 32 30 28 27 26 28 25 25 28 28 28 27 28 28 28 27 27 28 29 27 26 25 23 21 17 16 18 17 15 16 16 17 15 15 14 16 15 13 15 13 11 6 8 6 -0 -6 -6 8 8 9
31 31 31 30 29 28 24 23 27 24 22 25 25 26 26 27 27 27 26 26 28 27 26 25 24 23 18 16 18 16 15 15 15 16 16 14 14 15 13 14 14 14 11 9 5 -2 -2 -2 -3 -7 -8 2
32 31 30 29 29 29 28 26 25 25 26 24 25 27 25 25 26 26 26 26 26 27 27 26 25 24 20 17 17 17 15 15 14 15 15 14 14 13 11 13 13 15 13 9 6 1 2 1 -5 -6 -3 -7
32 31 30 29 28 28 27 27 27 26 26 26 25 24 22 25 25 25 26 26 26 26 27 26 26 25 23 18 17 18 16 15 15 15 15 14 13 13 10 11 12 14 15 11 11 9 -0 -3 0 9 -3 -11
32 31 30 29 29 29 28 27 27 26 26 27 26 27 23 24 24 25 24 24 25 25 26 27 26 25 24 21 17 19 17 16 15 15 15 15 13 12 12 9 10 13 14 13 11 12 10 9 5 -2 -7 -5